Regional Weather Roundup
Issued by NWS

Current Version | Previous Version | Text Only | Print | Product List | Glossary On
Versions: 1 2 3 4 5 6 7 8 9 10 11 12 13 14 15 16 17 18 19 20 21 22 23 24 25 26 27 28 29 30 31 32 33 34 35 36 37 38 39 40 41 42 43 44 45 46 47 48 49 50
000
ASUS45 KPSR 011410
RWRAZ

ARIZONA HOURLY REGIONAL WEATHER ROUNDUP
NATIONAL WEATHER SERVICE PHOENIX AZ
700 AM MST WED APR 01 2020

NOTE: FAIR INDICATES FEW OR NO CLOUDS BELOW 12,000 FEET WITH NO
SIGNIFICANT WEATHER AND/OR OBSTRUCTIONS TO VISIBILITY.

AZZ001>003-036-011500-
NORTHWEST ARIZONA

CITY           SKY/WX    TMP DP  RH WIND       PRES   REMARKS
BULLHEAD CITY  FAIR      57  46  67 CALM      29.77
KINGMAN        FAIR      49  31  49 SE12      29.84R
$$

AZZ004>008-015-016-018-011500-
NORTH CENTRAL ARIZONA

CITY           SKY/WX    TMP DP  RH WIND       PRES   REMARKS
GRAND CANYON   FAIR      29  26  89 NE3       29.93S
WILLIAMS       FAIR      41  27  56 SE9       29.93
PRESCOTT       FAIR      43  32  65 SE5       29.91R
FLAGSTAFF      FAIR      36  29  75 CALM      29.96S
PAYSON         FAIR      50  30  46 CALM      29.96R
PAGE           FAIR      51  28  41 CALM      29.83R
$$

AZZ009>014-017-011500-
NORTHEAST ARIZONA

CITY           SKY/WX    TMP DP  RH WIND       PRES   REMARKS
WINSLOW        FAIR      47  31  53 SE6       29.90R
SAINT JOHNS    FAIR      45  28  51 CALM      29.93R
WINDOW ROCK    FAIR      39  28  64 CALM      29.96R
SHOW LOW       PTSUNNY   50  23  34 S15       29.97
$$

AZZ540-542>544-546-548-011500-
GREATER PHOENIX AREA

CITY           SKY/WX    TMP DP  RH WIND       PRES   REMARKS
PHOENIX        MOCLDY    62  46  55 E7        29.79R
BUCKEYE        PTCLDY    55  48  76 NW5       29.81R
GLENDALE       MOCLDY    59  48  67 CALM      29.82R
LUKE AFB       FAIR      57  47  69 NE5       29.79R
DEER VALLEY    FAIR      60  43  53 NE5       29.82R
SCOTTSDALE     FAIR      61  44  53 CALM      29.82R
MESA-FALCON    FAIR      61  45  55 E5        29.81R
MESA-GATEWAY   MOCLDY    55  46  71 E6        29.82S
CHANDLER       MOCLDY    59  45  58 CALM      29.81S
$$

AZZ539-553-011500-
SOUTHWEST MARICOPA COUNTY AND PINAL COUNTY

CITY           SKY/WX    TMP DP  RH WIND       PRES   REMARKS
CASA GRANDE    FAIR      56  40  55 CALM      29.83R
GILA BEND      MOCLDY    60  42  51 CALM      29.79R
$$

AZZ503-504-507>509-011500-
SOUTHEAST ARIZONA

CITY           SKY/WX    TMP DP  RH WIND       PRES   REMARKS
TUCSON         FAIR      55  32  41 CALM      29.88R
DAVIS-MONTHAN  MOCLDY    54  34  47 E3        29.86R
RYAN FIELD     CLEAR     52  34  50 CALM      29.88R
NOGALES        MOCLDY    57  35  43 CALM      29.92R
SIERRA VISTA   CLOUDY    56  29  35 CALM      29.96
DOUGLAS        PTSUNNY   56  35  45 E5        29.93
SAFFORD        FAIR      53  37  54 SE5       29.88R
$$

AZZ532-011500-
SOUTHWEST ARIZONA

CITY           SKY/WX    TMP DP  RH WIND       PRES   REMARKS
YUMA           MOCLDY    60  46  59 NE3       29.77R
$$

CAZ041-043-047-048-061-525>527-560>570-011500-
SOUTHERN CALIFORNIA

CITY           SKY/WX    TMP DP  RH WIND       PRES   REMARKS
DOWNTOWN L.A.  CLOUDY    60  53  77 CALM      29.85R
L.A. AIRPORT   MOCLDY    59  54  83 E5        29.85R FOG
SAN DIEGO      CLOUDY    59  57  93 VRB7      29.88
BURBANK        FAIR      56  49  77 E3        29.84R
ONTARIO        FAIR      56  48  74 CALM      29.85R
RIVERSIDE      FAIR      53  46  77 CALM      29.85R
PALM SPRINGS   FAIR      64  40  41 CALM      29.77S
EL CENTRO NAS  MOCLDY    54  39  57 W5        29.77R
IMPERIAL       FAIR      57  40  52 CALM      29.75R
BLYTHE         FAIR      56  45  66 N5        29.77R
NEEDLES        FAIR      57  40  52 W6        29.77R
$$

NVZ020-UTZ003-011500-
SOUTHERN NEVADA-UTAH

CITY           SKY/WX    TMP DP  RH WIND       PRES   REMARKS
LAS VEGAS      FAIR      56  35  45 SW5       29.78R
SALT LAKE CITY FAIR      40  31  70 N3        29.81S
$$

NMZ009-TXZ055-011500-
NEW MEXICO-WEST TEXAS

CITY           SKY/WX    TMP DP  RH WIND       PRES   REMARKS
ALBUQUERQUE    PTSUNNY   53  20  27 SE6       29.92S
EL PASO        PTSUNNY   63  28  26 SE8       29.91S
$$


........................KEY........................
SKY/WX - SKY CONDITION/WEATHER
TMP    - TEMPERATURE IN FAHRENHEIT
DP     - DEW POINT IN FAHRENHEIT
RH     - RELATIVE HUMIDITY IN PERCENT
WIND   - DIRECTION AND SPEED IN MILES PER HOUR (MPH)
VRB    - VARIABLE WIND DIRECTION
PRES   - MEAN SEA LEVEL PRESSURE IN INCHES OF MERCURY
         F - FALLING PRESSURE   R - RISING PRESSURE
         S - STEADY PRESSURE
VSB    - VISIBILITY IN MILES
HX     - HEAT INDEX IN FAHRENHEIT
WCI    - WIND CHILL INDEX IN FAHRENHEIT
TC     - TEMPERATURE IN CELSIUS WHICH IS ALSO KNOWN AS
         TEMPERATURE IN CENTIGRADE
AFB    - AIR FORCE BASE
         LUKE AFB IS LUKE AIR FORCE BASE
         DAVIS-MONTHAN IS DAVIS-MONTHAN AIR FORCE BASE
NAS    - NAVAL AIR STATION
         EL CENTRO NAS IS EL CENTRO NAVAL AIR STATION
N/A    - NOT AVAILABLE




USA.gov is the U.S. government's official web portal to all federal, state and local government web resources and services.